| time (UTC) | temp F | wind direction | speed MPH | gust MPH | rain 1hr in | rain 24hr in | rain mn in | humidity % | barometer mb |
| 20260903174503 | 66 | 155 | 2.0 | 5.0 | 0.00 | 0.00 | 0.00 | 50 | 1017.0 |
| 20260903174004 | 66 | 116 | 2.0 | 5.0 | 0.00 | 0.00 | 0.00 | 49 | 1017.0 |
| 20260903173504 | 66 | 96 | 2.0 | 8.0 | 0.00 | 0.00 | 0.00 | 50 | 1017.0 |
| 20260903172459 | 66 | 185 | 2.0 | 6.0 | 0.00 | 0.00 | 0.00 | 49 | 1017.2 |
| 20260903172005 | 65 | 47 | 2.0 | 6.0 | 0.00 | 0.00 | 0.00 | 52 | 1017.2 |
| 20260903171504 | 65 | 143 | 2.0 | 6.0 | 0.00 | 0.00 | 0.00 | 49 | 1017.3 |
| 20260903171005 | 65 | 214 | 1.0 | 4.0 | 0.00 | 0.00 | 0.00 | 51 | 1017.3 |
| 20260903170503 | 64 | 183 | 1.0 | 6.0 | 0.00 | 0.00 | 0.00 | 53 | 1017.4 |
| 20260903170003 | 64 | 123 | 1.0 | 6.0 | 0.00 | 0.00 | 0.00 | 53 | 1017.4 |
| 20260903165502 | 64 | 277 | 2.0 | 5.0 | 0.00 | 0.00 | 0.00 | 54 | 1017.4 |
| 20260903165004 | 64 | 158 | 2.0 | 5.0 | 0.00 | 0.00 | 0.00 | 54 | 1017.4 |
| 20260903164503 | 64 | 221 | 2.0 | 9.0 | 0.00 | 0.00 | 0.00 | 54 | 1017.4 |
| 20260903164002 | 64 | 170 | 2.0 | 9.0 | 0.00 | 0.00 | 0.00 | 55 | 1017.4 |
| 20260903163503 | 63 | 131 | 2.0 | 4.0 | 0.00 | 0.00 | 0.00 | 56 | 1017.4 |
| 20260903163004 | 63 | 184 | 2.0 | 4.0 | 0.00 | 0.00 | 0.00 | 56 | 1017.4 |
| 20260903162504 | 62 | 233 | 2.0 | 6.0 | 0.00 | 0.00 | 0.00 | 57 | 1017.4 |
| 20260903160504 | 61 | 126 | 1.0 | 4.0 | 0.00 | 0.00 | 0.00 | 59 | 1017.5 |
| 20260903160008 | 60 | 150 | 1.0 | 3.0 | 0.00 | 0.00 | 0.00 | 59 | 1017.4 |
| 20260903155506 | 59 | 136 | 1.0 | 2.0 | 0.00 | 0.00 | 0.00 | 61 | 1017.5 |
| 20260903155005 | 58 | 207 | 0.0 | 2.0 | 0.00 | 0.00 | 0.00 | 62 | 1017.6 |
| 20260903154503 | 58 | 115 | 1.0 | 2.0 | 0.00 | 0.00 | 0.00 | 63 | 1017.5 |
| 20260903154004 | 57 | 145 | 1.0 | 2.0 | 0.00 | 0.00 | 0.00 | 64 | 1017.5 |
| 20260903153503 | 56 | 146 | 0.0 | 2.0 | 0.00 | 0.00 | 0.00 | 64 | 1017.6 |
| 20260903153005 | 56 | 155 | 0.0 | 2.0 | 0.00 | 0.00 | 0.00 | 66 | 1017.6 |
| 20260903152004 | 55 | 38 | 0.0 | 1.0 | 0.00 | 0.00 | 0.00 | 66 | 1017.6 |
| 20260903151003 | 54 | 325 | 0.0 | 0.0 | 0.00 | 0.00 | 0.00 | 66 | 1017.6 |
| 20260903150501 | 54 | 325 | 0.0 | 0.0 | 0.00 | 0.00 | 0.00 | 65 | 1017.6 |
| 20260903150001 | 54 | 325 | 0.0 | 0.0 | 0.00 | 0.00 | 0.00 | 64 | 1017.5 |
| 20260903145503 | 54 | 325 | 0.0 | 0.0 | 0.00 | 0.00 | 0.00 | 64 | 1017.5 |
| 20260903145004 | 54 | 325 | 0.0 | 0.0 | 0.00 | 0.00 | 0.00 | 63 | 1017.5 |
| 20260903144005 | 54 | 325 | 0.0 | 0.0 | 0.00 | 0.00 | 0.00 | 61 | 1017.4 |
| 20260903143000 | 54 | 322 | 0.0 | 0.0 | 0.00 | 0.00 | 0.00 | 62 | 1017.4 |
| 20260903142504 | 53 | 322 | 0.0 | 1.0 | 0.00 | 0.00 | 0.00 | 63 | 1017.4 |
| 20260903142006 | 52 | 32 | 0.0 | 1.0 | 0.00 | 0.00 | 0.00 | 65 | 1017.4 |
| 20260903141503 | 51 | 32 | 0.0 | 1.0 | 0.00 | 0.00 | 0.00 | 67 | 1017.3 |
| 20260903141004 | 50 | 32 | 0.0 | 1.0 | 0.00 | 0.00 | 0.00 | 67 | 1017.3 |
| 20260903140502 | 50 | 280 | 0.0 | 0.0 | 0.00 | 0.00 | 0.00 | 67 | 1017.2 |
| 20260903140008 | 50 | 280 | 0.0 | 1.0 | 0.00 | 0.00 | 0.00 | 67 | 1017.2 |
| 20260903135004 | 50 | 281 | 0.0 | 1.0 | 0.00 | 0.00 | 0.00 | 67 | 1017.1 |
| 20260903134459 | 50 | 281 | 0.0 | 1.0 | 0.00 | 0.00 | 0.00 | 67 | 1017.0 |
| 20260903134003 | 50 | 281 | 0.0 | 1.0 | 0.00 | 0.00 | 0.00 | 68 | 1017.0 |
| 20260903133500 | 50 | 281 | 0.0 | 0.0 | 0.00 | 0.00 | 0.00 | 68 | 1016.9 |
| 20260903133005 | 50 | 281 | 0.0 | 1.0 | 0.00 | 0.00 | 0.00 | 68 | 1017.0 |
| 20260903132004 | 51 | 280 | 0.0 | 0.0 | 0.00 | 0.00 | 0.00 | 68 | 1016.9 |
| 20260903131503 | 51 | 281 | 0.0 | 1.0 | 0.00 | 0.00 | 0.00 | 67 | 1017.0 |
| 20260903131003 | 51 | 280 | 0.0 | 1.0 | 0.00 | 0.00 | 0.00 | 68 | 1016.9 |
| 20260903130506 | 51 | 281 | 0.0 | 1.0 | 0.00 | 0.00 | 0.00 | 68 | 1016.9 |
| 20260903130006 | 50 | 280 | 0.0 | 0.0 | 0.00 | 0.00 | 0.00 | 68 | 1016.9 |
| 20260903124504 | 51 | 281 | 0.0 | 1.0 | 0.00 | 0.00 | 0.00 | 68 | 1017.0 |
| 20260903123503 | 50 | 282 | 0.0 | 1.0 | 0.00 | 0.00 | 0.00 | 69 | 1017.1 |
| 20260903123005 | 50 | 281 | 0.0 | 1.0 | 0.00 | 0.00 | 0.00 | 70 | 1017.1 |
| 20260903122502 | 50 | 281 | 0.0 | 1.0 | 0.00 | 0.00 | 0.00 | 70 | 1017.2 |
| 20260903122003 | 50 | 283 | 0.0 | 1.0 | 0.00 | 0.00 | 0.00 | 70 | 1017.2 |
| 20260903121504 | 50 | 283 | 0.0 | 1.0 | 0.00 | 0.00 | 0.00 | 70 | 1017.3 |
| 20260903121001 | 50 | 283 | 0.0 | 1.0 | 0.00 | 0.00 | 0.00 | 70 | 1017.3 |
| 20260903120503 | 50 | 283 | 0.0 | 0.0 | 0.00 | 0.00 | 0.00 | 69 | 1017.4 |
| 20260903120006 | 51 | 283 | 0.0 | 0.0 | 0.00 | 0.00 | 0.00 | 69 | 1017.4 |
| 20260903115459 | 51 | 285 | 0.0 | 0.0 | 0.00 | 0.00 | 0.00 | 69 | 1017.5 |
| 20260903115007 | 51 | 285 | 0.0 | 1.0 | 0.00 | 0.00 | 0.00 | 69 | 1017.5 |
| 20260903113959 | 51 | 288 | 0.0 | 1.0 | 0.00 | 0.00 | 0.00 | 70 | 1017.5 |
| 20260903113503 | 50 | 290 | 0.0 | 1.0 | 0.00 | 0.00 | 0.00 | 71 | 1017.5 |
| 20260903113007 | 50 | 290 | 0.0 | 1.0 | 0.00 | 0.00 | 0.00 | 71 | 1017.6 |
| 20260903112502 | 50 | 291 | 0.0 | 1.0 | 0.00 | 0.00 | 0.00 | 71 | 1017.6 |
| 20260903112007 | 50 | 291 | 0.0 | 0.0 | 0.00 | 0.00 | 0.00 | 71 | 1017.6 |
| 20260903111007 | 50 | 292 | 0.0 | 0.0 | 0.00 | 0.00 | 0.00 | 71 | 1017.8 |
| 20260903110008 | 51 | 291 | 0.0 | 1.0 | 0.00 | 0.00 | 0.00 | 70 | 1017.8 |
| 20260903105506 | 51 | 292 | 0.0 | 1.0 | 0.00 | 0.00 | 0.00 | 71 | 1017.8 |
| 20260903105008 | 50 | 291 | 0.0 | 1.0 | 0.00 | 0.00 | 0.00 | 71 | 1017.8 |
| 20260903104504 | 51 | 293 | 0.0 | 0.0 | 0.00 | 0.00 | 0.00 | 71 | 1017.9 |
| 20260903104006 | 51 | 293 | 0.0 | 1.0 | 0.00 | 0.00 | 0.00 | 71 | 1017.9 |
| 20260903103502 | 50 | 293 | 0.0 | 1.0 | 0.00 | 0.00 | 0.00 | 71 | 1018.0 |
| 20260903103005 | 50 | 293 | 0.0 | 1.0 | 0.00 | 0.00 | 0.00 | 72 | 1018.0 |
| 20260903102504 | 50 | 293 | 0.0 | 1.0 | 0.00 | 0.00 | 0.00 | 72 | 1018.1 |
| 20260903102006 | 50 | 293 | 0.0 | 1.0 | 0.00 | 0.00 | 0.00 | 73 | 1018.0 |
| 20260903101503 | 50 | 293 | 0.0 | 1.0 | 0.00 | 0.00 | 0.00 | 73 | 1018.1 |
| 20260903101004 | 50 | 291 | 0.0 | 1.0 | 0.00 | 0.00 | 0.00 | 73 | 1018.1 |
| 20260903100503 | 50 | 291 | 0.0 | 0.0 | 0.00 | 0.00 | 0.00 | 74 | 1018.1 |
| 20260903100007 | 50 | 291 | 0.0 | 0.0 | 0.00 | 0.00 | 0.00 | 74 | 1018.1 |
| 20260903094503 | 50 | 291 | 0.0 | 0.0 | 0.00 | 0.00 | 0.00 | 73 | 1018.1 |
| 20260903094002 | 50 | 291 | 0.0 | 0.0 | 0.00 | 0.00 | 0.00 | 74 | 1018.1 |
| 20260903093504 | 49 | 291 | 0.0 | 0.0 | 0.00 | 0.00 | 0.00 | 74 | 1018.1 |
| 20260903093004 | 49 | 291 | 0.0 | 0.0 | 0.00 | 0.00 | 0.00 | 74 | 1018.2 |
| 20260903092006 | 50 | 291 | 0.0 | 1.0 | 0.00 | 0.00 | 0.00 | 73 | 1018.3 |
| 20260903091503 | 50 | 280 | 0.0 | 0.0 | 0.00 | 0.00 | 0.00 | 73 | 1018.4 |
| 20260903091005 | 50 | 280 | 0.0 | 0.0 | 0.00 | 0.00 | 0.00 | 73 | 1018.3 |
| 20260903090007 | 50 | 280 | 0.0 | 1.0 | 0.00 | 0.00 | 0.00 | 73 | 1018.3 |
| 20260903085503 | 50 | 280 | 0.0 | 0.0 | 0.00 | 0.00 | 0.00 | 73 | 1018.3 |
| 20260903085003 | 50 | 280 | 0.0 | 0.0 | 0.00 | 0.00 | 0.00 | 73 | 1018.3 |
| 20260903084507 | 50 | 280 | 0.0 | 0.0 | 0.00 | 0.00 | 0.00 | 72 | 1018.4 |
| 20260903084004 | 51 | 280 | 0.0 | 0.0 | 0.00 | 0.00 | 0.00 | 71 | 1018.5 |
| 20260903082503 | 52 | 280 | 0.0 | 1.0 | 0.00 | 0.00 | 0.00 | 70 | 1018.4 |
| 20260903082004 | 52 | 280 | 0.0 | 1.0 | 0.00 | 0.00 | 0.00 | 70 | 1018.4 |
| 20260903081503 | 51 | 280 | 0.0 | 1.0 | 0.00 | 0.00 | 0.00 | 71 | 1018.5 |
| 20260903081007 | 51 | 280 | 0.0 | 0.0 | 0.00 | 0.00 | 0.00 | 71 | 1018.5 |
| 20260903080504 | 52 | 280 | 0.0 | 1.0 | 0.00 | 0.00 | 0.00 | 71 | 1018.5 |
| 20260903075959 | 52 | 280 | 0.0 | 1.0 | 0.00 | 0.00 | 0.00 | 71 | 1018.5 |
| 20260903075500 | 52 | 280 | 0.0 | 1.0 | 0.00 | 0.00 | 0.00 | 71 | 1018.6 |
| 20260903074503 | 51 | 281 | 0.0 | 1.0 | 0.00 | 0.00 | 0.00 | 71 | 1018.5 |
| 20260903074002 | 51 | 219 | 0.0 | 1.0 | 0.00 | 0.00 | 0.00 | 72 | 1018.4 |
| 20260903073502 | 51 | 219 | 0.0 | 1.0 | 0.00 | 0.00 | 0.00 | 72 | 1018.4 |
| 20260903072959 | 51 | 219 | 0.0 | 0.0 | 0.00 | 0.00 | 0.00 | 71 | 1018.5 |
| 20260903072502 | 51 | 219 | 0.0 | 0.0 | 0.00 | 0.00 | 0.00 | 71 | 1018.5 |
| 20260903071958 | 51 | 195 | 0.0 | 0.0 | 0.00 | 0.00 | 0.00 | 72 | 1018.5 |
| 20260903071006 | 51 | 191 | 0.0 | 0.0 | 0.00 | 0.00 | 0.00 | 73 | 1018.5 |
| 20260903070500 | 51 | 191 | 0.0 | 0.0 | 0.00 | 0.00 | 0.00 | 74 | 1018.5 |
| 20260903065006 | 51 | 191 | 0.0 | 0.0 | 0.00 | 0.00 | 0.00 | 74 | 1018.5 |
| 20260903064504 | 50 | 191 | 0.0 | 0.0 | 0.00 | 0.00 | 0.00 | 75 | 1018.6 |
| 20260903064005 | 51 | 191 | 0.0 | 0.0 | 0.00 | 0.00 | 0.00 | 75 | 1018.6 |
| 20260903063005 | 51 | 191 | 0.0 | 0.0 | 0.00 | 0.00 | 0.00 | 75 | 1018.6 |
| 20260903062503 | 51 | 191 | 0.0 | 0.0 | 0.00 | 0.00 | 0.00 | 75 | 1018.6 |
| 20260903062003 | 51 | 191 | 0.0 | 0.0 | 0.00 | 0.00 | 0.00 | 76 | 1018.7 |
| 20260903061005 | 51 | 191 | 0.0 | 0.0 | 0.00 | 0.00 | 0.00 | 75 | 1018.7 |
| 20260903060504 | 52 | 191 | 0.0 | 0.0 | 0.00 | 0.00 | 0.00 | 75 | 1018.7 |
| 20260903060008 | 52 | 191 | 0.0 | 0.0 | 0.00 | 0.00 | 0.00 | 74 | 1018.8 |
| 20260903055504 | 52 | 191 | 0.0 | 0.0 | 0.00 | 0.00 | 0.00 | 74 | 1018.8 |
| 20260903055004 | 52 | 191 | 0.0 | 0.0 | 0.00 | 0.00 | 0.00 | 74 | 1018.7 |
| 20260903054503 | 52 | 191 | 0.0 | 0.0 | 0.00 | 0.00 | 0.00 | 75 | 1018.7 |
| 20260903054003 | 52 | 191 | 0.0 | 0.0 | 0.00 | 0.00 | 0.00 | 76 | 1018.7 |
| 20260903053505 | 52 | 191 | 0.0 | 0.0 | 0.00 | 0.00 | 0.00 | 76 | 1018.8 |
| 20260903053004 | 52 | 191 | 0.0 | 0.0 | 0.00 | 0.00 | 0.00 | 77 | 1018.9 |
| 20260903052005 | 51 | 191 | 0.0 | 0.0 | 0.00 | 0.00 | 0.00 | 79 | 1018.9 |
| 20260903051500 | 52 | 191 | 0.0 | 0.0 | 0.00 | 0.00 | 0.00 | 79 | 1019.0 |
| 20260903051004 | 51 | 191 | 0.0 | 0.0 | 0.00 | 0.00 | 0.00 | 79 | 1018.9 |
| 20260903050007 | 51 | 191 | 0.0 | 0.0 | 0.00 | 0.00 | 0.00 | 80 | 1019.0 |
| 20260903045504 | 51 | 191 | 0.0 | 0.0 | 0.00 | 0.00 | 0.00 | 80 | 1019.0 |
| 20260903045004 | 51 | 191 | 0.0 | 0.0 | 0.00 | 0.00 | 0.00 | 79 | 1019.0 |
| 20260903044004 | 52 | 191 | 0.0 | 0.0 | 0.00 | 0.00 | 0.00 | 78 | 1019.0 |
| 20260903043503 | 52 | 191 | 0.0 | 0.0 | 0.00 | 0.00 | 0.00 | 78 | 1019.1 |
| 20260903043004 | 52 | 191 | 0.0 | 0.0 | 0.00 | 0.00 | 0.00 | 78 | 1019.1 |
| 20260903042006 | 52 | 191 | 0.0 | 0.0 | 0.00 | 0.00 | 0.00 | 77 | 1019.1 |
| 20260903041504 | 53 | 191 | 0.0 | 0.0 | 0.00 | 0.00 | 0.00 | 77 | 1019.0 |
| 20260903040504 | 53 | 191 | 0.0 | 0.0 | 0.00 | 0.00 | 0.00 | 77 | 1019.1 |
| 20260903040008 | 53 | 191 | 0.0 | 0.0 | 0.00 | 0.00 | 0.00 | 77 | 1019.1 |
| 20260903035505 | 53 | 191 | 0.0 | 0.0 | 0.00 | 0.00 | 0.00 | 76 | 1019.1 |
| 20260903035002 | 53 | 191 | 0.0 | 0.0 | 0.00 | 0.00 | 0.00 | 76 | 1019.1 |
| 20260903034503 | 54 | 191 | 0.0 | 0.0 | 0.00 | 0.00 | 0.00 | 75 | 1019.0 |
| 20260903034005 | 54 | 191 | 0.0 | 0.0 | 0.00 | 0.00 | 0.00 | 75 | 1018.9 |
| 20260903033503 | 54 | 191 | 0.0 | 0.0 | 0.00 | 0.00 | 0.00 | 75 | 1018.9 |
| 20260903033006 | 54 | 191 | 0.0 | 0.0 | 0.00 | 0.00 | 0.00 | 74 | 1018.8 |
| 20260903032503 | 55 | 191 | 0.0 | 0.0 | 0.00 | 0.00 | 0.00 | 73 | 1018.8 |
| 20260903032004 | 55 | 191 | 0.0 | 0.0 | 0.00 | 0.00 | 0.00 | 72 | 1018.7 |
| 20260903031504 | 55 | 191 | 0.0 | 0.0 | 0.00 | 0.00 | 0.00 | 72 | 1018.7 |
| 20260903031005 | 55 | 191 | 0.0 | 0.0 | 0.00 | 0.00 | 0.00 | 72 | 1018.7 |
| 20260903030503 | 55 | 191 | 0.0 | 0.0 | 0.00 | 0.00 | 0.00 | 71 | 1018.7 |
| 20260903030006 | 56 | 191 | 0.0 | 0.0 | 0.00 | 0.00 | 0.00 | 70 | 1018.6 |
| 20260903025504 | 56 | 191 | 0.0 | 0.0 | 0.00 | 0.00 | 0.00 | 69 | 1018.6 |
| 20260903025006 | 56 | 191 | 0.0 | 0.0 | 0.00 | 0.00 | 0.00 | 68 | 1018.6 |
| 20260903023503 | 58 | 191 | 0.0 | 0.0 | 0.00 | 0.00 | 0.00 | 66 | 1018.6 |
| 20260903023005 | 58 | 191 | 0.0 | 0.0 | 0.00 | 0.00 | 0.00 | 65 | 1018.7 |
| 20260903022504 | 58 | 191 | 0.0 | 0.0 | 0.00 | 0.00 | 0.00 | 64 | 1018.7 |
| 20260903022003 | 59 | 191 | 0.0 | 0.0 | 0.00 | 0.00 | 0.00 | 63 | 1018.7 |
| 20260903021505 | 59 | 79 | 0.0 | 1.0 | 0.00 | 0.00 | 0.00 | 62 | 1018.8 |
| 20260903021004 | 59 | 80 | 0.0 | 1.0 | 0.00 | 0.00 | 0.00 | 62 | 1018.8 |
| 20260903020504 | 59 | 75 | 0.0 | 1.0 | 0.00 | 0.00 | 0.00 | 60 | 1018.8 |
| 20260903020007 | 60 | 75 | 0.0 | 1.0 | 0.00 | 0.00 | 0.00 | 60 | 1018.8 |
| 20260903015504 | 60 | 164 | 0.0 | 0.0 | 0.00 | 0.00 | 0.00 | 58 | 1018.9 |
| 20260903015004 | 60 | 164 | 0.0 | 2.0 | 0.00 | 0.00 | 0.00 | 58 | 1019.0 |
| 20260903014004 | 61 | 270 | 0.0 | 5.0 | 0.00 | 0.00 | 0.00 | 56 | 1018.9 |
| 20260903013503 | 61 | 86 | 0.0 | 2.0 | 0.00 | 0.00 | 0.00 | 55 | 1018.9 |
| 20260903012503 | 61 | 124 | 0.0 | 2.0 | 0.00 | 0.00 | 0.00 | 51 | 1018.9 |
| 20260903012003 | 62 | 123 | 0.0 | 2.0 | 0.00 | 0.00 | 0.00 | 50 | 1018.9 |
| 20260903011502 | 62 | 88 | 1.0 | 4.0 | 0.00 | 0.00 | 0.00 | 51 | 1018.9 |
| 20260903011004 | 62 | 160 | 1.0 | 4.0 | 0.00 | 0.00 | 0.00 | 49 | 1018.9 |
| 20260903010504 | 62 | 172 | 1.0 | 4.0 | 0.00 | 0.00 | 0.00 | 48 | 1018.9 |
| 20260903010002 | 62 | 175 | 1.0 | 4.0 | 0.00 | 0.00 | 0.00 | 47 | 1019.0 |
| 20260903005504 | 63 | 235 | 1.0 | 4.0 | 0.00 | 0.00 | 0.00 | 47 | 1018.9 |
| 20260903004504 | 63 | 167 | 1.0 | 4.0 | 0.00 | 0.00 | 0.00 | 45 | 1018.9 |
| 20260903004004 | 63 | 155 | 0.0 | 4.0 | 0.00 | 0.00 | 0.00 | 45 | 1019.0 |
| 20260903003504 | 63 | 256 | 1.0 | 5.0 | 0.00 | 0.00 | 0.00 | 45 | 1019.0 |
| 20260903003005 | 63 | 91 | 1.0 | 5.0 | 0.00 | 0.00 | 0.00 | 44 | 1019.1 |
| 20260903002503 | 64 | 205 | 1.0 | 7.0 | 0.00 | 0.00 | 0.00 | 44 | 1019.1 |
| 20260903002004 | 64 | 233 | 1.0 | 7.0 | 0.00 | 0.00 | 0.00 | 44 | 1019.1 |
| 20260903001004 | 65 | 163 | 1.0 | 6.0 | 0.00 | 0.00 | 0.00 | 43 | 1019.1 |
| 20260903000501 | 66 | 190 | 1.0 | 9.0 | 0.00 | 0.00 | 0.00 | 42 | 1019.1 |
| 20260902235505 | 67 | 203 | 2.0 | 7.0 | 0.00 | 0.00 | 0.00 | 41 | 1019.1 |
| 20260902235006 | 67 | 214 | 2.0 | 9.0 | 0.00 | 0.00 | 0.00 | 40 | 1019.2 |
| 20260902234503 | 69 | 108 | 1.0 | 4.0 | 0.00 | 0.00 | 0.00 | 39 | 1019.2 |
| 20260902232004 | 69 | 285 | 2.0 | 5.0 | 0.00 | 0.00 | 0.00 | 38 | 1019.2 |
| 20260902231503 | 69 | 139 | 1.0 | 5.0 | 0.00 | 0.00 | 0.00 | 37 | 1019.2 |
| 20260902231003 | 69 | 132 | 2.0 | 6.0 | 0.00 | 0.00 | 0.00 | 38 | 1019.2 |
| 20260902230503 | 68 | 193 | 2.0 | 9.0 | 0.00 | 0.00 | 0.00 | 39 | 1019.3 |
| 20260902230008 | 68 | 157 | 2.0 | 9.0 | 0.00 | 0.00 | 0.00 | 37 | 1019.4 |
| 20260902225503 | 68 | 331 | 2.0 | 5.0 | 0.00 | 0.00 | 0.00 | 37 | 1019.4 |
| 20260902225003 | 68 | 291 | 1.0 | 8.0 | 0.00 | 0.00 | 0.00 | 36 | 1019.5 |
| 20260902224503 | 69 | 153 | 1.0 | 6.0 | 0.00 | 0.00 | 0.00 | 38 | 1019.4 |
| 20260902224004 | 68 | 229 | 2.0 | 6.0 | 0.00 | 0.00 | 0.00 | 38 | 1019.5 |
| 20260902223503 | 68 | 162 | 2.0 | 5.0 | 0.00 | 0.00 | 0.00 | 39 | 1019.4 |
| 20260902223004 | 68 | 132 | 2.0 | 6.0 | 0.00 | 0.00 | 0.00 | 39 | 1019.5 |
| 20260902222506 | 68 | 134 | 2.0 | 6.0 | 0.00 | 0.00 | 0.00 | 38 | 1019.6 |
| 20260902221002 | 68 | 217 | 2.0 | 8.0 | 0.00 | 0.00 | 0.00 | 40 | 1019.6 |
| 20260902220010 | 67 | 289 | 3.0 | 8.0 | 0.00 | 0.00 | 0.00 | 40 | 1019.7 |
| 20260902215502 | 67 | 54 | 3.0 | 9.0 | 0.00 | 0.00 | 0.00 | 40 | 1019.7 |
| 20260902215003 | 68 | 128 | 2.0 | 9.0 | 0.00 | 0.00 | 0.00 | 39 | 1019.8 |
| 20260902214503 | 68 | 145 | 2.0 | 8.0 | 0.00 | 0.00 | 0.00 | 40 | 1019.8 |
| 20260902214003 | 68 | 283 | 2.0 | 6.0 | 0.00 | 0.00 | 0.00 | 38 | 1019.7 |
| 20260902213504 | 68 | 237 | 2.0 | 7.0 | 0.00 | 0.00 | 0.00 | 40 | 1019.7 |
| 20260902213004 | 69 | 122 | 2.0 | 7.0 | 0.00 | 0.00 | 0.00 | 38 | 1019.8 |
| 20260902212502 | 69 | 235 | 2.0 | 6.0 | 0.00 | 0.00 | 0.00 | 39 | 1019.9 |
| 20260902212003 | 69 | 127 | 2.0 | 8.0 | 0.00 | 0.00 | 0.00 | 39 | 1019.9 |
| 20260902211002 | 69 | 242 | 2.0 | 8.0 | 0.00 | 0.00 | 0.00 | 39 | 1019.9 |
| 20260902210002 | 68 | 250 | 3.0 | 8.0 | 0.00 | 0.00 | 0.00 | 40 | 1019.9 |
| 20260902205504 | 68 | 236 | 3.0 | 8.0 | 0.00 | 0.00 | 0.00 | 40 | 1019.7 |
| 20260902204503 | 68 | 108 | 3.0 | 9.0 | 0.00 | 0.00 | 0.00 | 40 | 1019.8 |
| 20260902204010 | 68 | 241 | 3.0 | 7.0 | 0.00 | 0.00 | 0.00 | 40 | 1019.8 |
| 20260902203509 | 69 | 257 | 3.0 | 6.0 | 0.00 | 0.00 | 0.00 | 40 | 1019.8 |
| 20260902203009 | 68 | 297 | 3.0 | 6.0 | 0.00 | 0.00 | 0.00 | 41 | 1019.7 |
| 20260902202504 | 68 | 143 | 2.0 | 6.0 | 0.00 | 0.00 | 0.00 | 41 | 1019.8 |
| 20260902202008 | 68 | 73 | 2.0 | 8.0 | 0.00 | 0.00 | 0.00 | 42 | 1019.9 |
| 20260902201508 | 68 | 155 | 3.0 | 8.0 | 0.00 | 0.00 | 0.00 | 40 | 1019.9 |
| 20260902201010 | 67 | 198 | 2.0 | 8.0 | 0.00 | 0.00 | 0.00 | 41 | 1020.0 |
| 20260902200008 | 66 | 221 | 3.0 | 9.0 | 0.00 | 0.00 | 0.00 | 41 | 1020.0 |
| 20260902195505 | 66 | 166 | 2.0 | 7.0 | 0.00 | 0.00 | 0.00 | 43 | 1020.1 |
| 20260902195006 | 66 | 227 | 2.0 | 5.0 | 0.00 | 0.00 | 0.00 | 43 | 1020.3 |
| 20260902194504 | 66 | 254 | 3.0 | 9.0 | 0.00 | 0.00 | 0.00 | 43 | 1020.2 |
| 20260902194006 | 66 | 198 | 4.0 | 14.0 | 0.00 | 0.00 | 0.00 | 42 | 1020.1 |
| 20260902193505 | 66 | 195 | 4.0 | 14.0 | 0.00 | 0.00 | 0.00 | 43 | 1020.1 |
| 20260902193005 | 67 | 114 | 3.0 | 10.0 | 0.00 | 0.00 | 0.00 | 41 | 1020.0 |
| 20260902192502 | 67 | 122 | 2.0 | 10.0 | 0.00 | 0.00 | 0.00 | 41 | 1020.0 |
| 20260902192005 | 67 | 245 | 2.0 | 9.0 | 0.00 | 0.00 | 0.00 | 43 | 1020.0 |
| 20260902191003 | 67 | 143 | 2.0 | 8.0 | 0.00 | 0.00 | 0.00 | 44 | 1019.9 |
| 20260902190501 | 67 | 248 | 2.0 | 7.0 | 0.00 | 0.00 | 0.00 | 45 | 1020.0 |
| 20260902190004 | 67 | 288 | 2.0 | 7.0 | 0.00 | 0.00 | 0.00 | 44 | 1020.0 |
| 20260902185503 | 66 | 226 | 2.0 | 11.0 | 0.00 | 0.00 | 0.00 | 46 | 1019.8 |
| 20260902185104 | 65 | 264 | 3.0 | 9.0 | 0.00 | 0.00 | 0.00 | 46 | 1019.8 |
| 20260902184002 | 65 | 59 | 2.0 | 8.0 | 0.00 | 0.00 | 0.00 | 47 | 1019.8 |
| 20260902183002 | 64 | 188 | 3.0 | 9.0 | 0.00 | 0.00 | 0.00 | 47 | 1019.8 |
| 20260902182503 | 64 | 117 | 3.0 | 12.0 | 0.00 | 0.00 | 0.00 | 46 | 1020.0 |
| 20260902182004 | 65 | 122 | 3.0 | 11.0 | 0.00 | 0.00 | 0.00 | 48 | 1019.9 |
| 20260902181504 | 65 | 126 | 3.0 | 8.0 | 0.00 | 0.00 | 0.00 | 46 | 1019.9 |
| 20260902181005 | 65 | 130 | 2.0 | 10.0 | 0.00 | 0.00 | 0.00 | 49 | 1019.9 |
| 20260902180008 | 64 | 82 | 2.0 | 8.0 | 0.00 | 0.00 | 0.00 | 48 | 1020.0 |
| 20260902175504 | 64 | 293 | 2.0 | 7.0 | 0.00 | 0.00 | 0.00 | 48 | 1019.9 |